Weather History for KHEY - February, 2014

Change the Weather History Date:

Tuesday, February 25, 2014

  Actual Average (KOZR) Record (KOZR)
Temperature  
Mean Temperature 60 °F -  
Max Temperature 75 °F 63 °F 78 °F (2011)
Min Temperature 46 °F 42 °F 35 °F (1999)
Degree Days  
Heating Degree Days 4    
Growing Degree Days 10 (Base 50)    
Moisture  
Dew Point 48 °F    
Average Humidity 67    
Maximum Humidity 90    
Minimum Humidity 40    
Precipitation  
Precipitation 0.00 in - - ()
Sea Level Pressure  
Sea Level Pressure 29.82 in    
Wind  
Wind Speed 2 mph (NW)    
Max Wind Speed 9 mph    
Max Gust Speed -    
Visibility 10 miles    
Events      
Averages and records for this station are not official NWS values.
T = Trace of Precipitation, MM = Missing Value Source: NWS Daily Summary

Daily Weather History Graph

Daily Weather History Graph

Search for Another Location

Airport or City:

Trip Planner

Search our weather history database for the weather conditions in past years. The results will help you decide how hot, cold, wet, or windy it might be!

Date:

Astronomy

Feb. 25, 2014 Rise Set
Actual Time 6:13 AM CST 5:37 PM CST
Civil Twilight 5:49 AM CST 6:02 PM CST
Nautical Twilight 5:21 AM CST 6:30 PM CST
Astronomical Twilight 4:53 AM CST 6:58 PM CST
Moon 2:57 AM CST (2/25) 1:52 PM CST (2/25)
Length of Visible Light 12h 12m
Length of Day
11h 23m
Waning Crescent, 18% of the Moon is Illuminated
Feb 25
Waning Crescent
Mar 1
New
Mar 8
First Quarter
Mar 16
Full
Mar 23
Last Quarter

Hourly Weather History & Observations

Time (CST) Temp. Dew Point Humidity Pressure Visibility Wind Dir Wind Speed Gust Speed Precip Events Conditions
12:53 AM 52.0 °F 43.0 °F 71% 29.72 in 10.0 mi North 5.8 mph - N/A   Clear
1:53 AM 50.0 °F 43.0 °F 77% 29.70 in 10.0 mi Calm Calm - N/A   Clear
2:53 AM 48.0 °F 43.0 °F 83% 30.01 in 10.0 mi Calm Calm - N/A   Clear
3:53 AM 46.9 °F 42.1 °F 83% 30.01 in 10.0 mi Calm Calm - N/A   Clear
4:53 AM 46.9 °F 43.0 °F 86% 30.01 in 10.0 mi Calm Calm - N/A   Clear
5:53 AM 46.9 °F 44.1 °F 90% 30.03 in 10.0 mi Calm Calm - N/A   Clear
6:53 AM 48.9 °F 44.1 °F 83% 30.03 in 10.0 mi Calm Calm - N/A   Clear
7:53 AM 53.1 °F 46.0 °F 77% 30.04 in 10.0 mi Calm Calm - N/A   Clear
8:53 AM 61.0 °F 46.0 °F 58% 29.75 in 10.0 mi Calm Calm - N/A   Clear
9:53 AM 68.0 °F 46.9 °F 47% 29.75 in 10.0 mi WSW 3.5 mph - N/A   Mostly Cloudy
10:53 AM 71.1 °F 48.0 °F 44% 29.75 in 10.0 mi WNW 5.8 mph - N/A   Overcast
11:53 AM 72.0 °F 48.9 °F 44% 29.71 in 10.0 mi Calm Calm - N/A   Partly Cloudy
12:53 PM 75.0 °F 48.9 °F 40% 29.67 in 10.0 mi NW 9.2 mph - N/A   Mostly Cloudy
1:53 PM 73.9 °F 48.9 °F 41% 29.66 in 10.0 mi Variable 4.6 mph - N/A   Overcast
2:53 PM 73.9 °F 50.0 °F 43% 29.64 in 10.0 mi NNW 8.1 mph - N/A   Scattered Clouds
3:53 PM 71.1 °F 51.1 °F 49% 29.93 in 10.0 mi NW 6.9 mph - N/A   Partly Cloudy
4:53 PM 70.0 °F 52.0 °F 53% 29.92 in 10.0 mi Calm Calm - N/A   Overcast
5:53 PM 66.0 °F 53.1 °F 63% 29.93 in 10.0 mi Calm Calm - N/A   Mostly Cloudy
6:53 PM 63.0 °F 54.0 °F 72% 29.92 in 10.0 mi Calm Calm - N/A   Clear
7:53 PM 61.0 °F 54.0 °F 78% 29.93 in 10.0 mi Calm Calm - N/A   Partly Cloudy
8:53 PM 61.0 °F 53.1 °F 75% 29.65 in 10.0 mi NNW 4.6 mph - N/A   Mostly Cloudy
9:53 PM 59.0 °F 53.1 °F 81% 29.63 in 10.0 mi Calm Calm - N/A   Mostly Cloudy
10:53 PM 57.0 °F 52.0 °F 83% 29.62 in 10.0 mi Calm Calm - N/A   Clear
11:53 PM 55.9 °F 51.1 °F 84% 29.60 in 10.0 mi Calm Calm - N/A   Scattered Clouds